TIANZHOU-9

Last updated on Sat Jul 19 2025 00:02:09 GMT+0000 (Coordinated Universal Time)

1 64786U 25149A 25198.86013322 .00008035 00000+0 14434-2 0 9995 2 64786 98.7690 212.1764 0025153 262.0650 97.7697 14.66764666241028
UTC large
Height (km)
Speed (km/s)
/
Latitude / Longitude
Inclination (degrees)
Orbital Period (minutes)
Azimuth
Elevation
Range (km)
Doppler Factor

Next 0 passes for location: London (51.5072 / 0.1276)

Sorry there are no passes over London.